Regional Weather Roundup
Issued by NWS State College, PA

Home | Current Version | Previous Version | Graphics & Text | Print | Product List | Glossary Off
Versions: 1 2 3 4 5 6 7 8 9 10 11 12 13 14 15 16 17 18 19 20 21 22 23 24 25 26 27 28 29 30 31 32 33 34 35 36 37 38 39 40 41 42 43 44 45 46 47 48 49 50

000
ASUS41 KCTP 021903
RWRCTP

REGIONAL WEATHER ROUNDUP
NATIONAL WEATHER SERVICE STATE COLLEGE PA
300 PM EDT WED SEP 02 2015

Note: "fair" indicates few or no clouds below 12,000 feet with no
significant weather and/or obstructions to visibility.

* = STATION THAT DOES NOT REPORT PRECIPITATION /E.G. RAIN...SNOW...ETC/
    THUNDER OR FOG.

PAZ002>004-007>009-013>016-020>023-029>032-022000-
WESTERN PENNSYLVANIA

CITY           SKY/WX    TMP DP  RH WIND       PRES   REMARKS
ERIE           SUNNY     80  69  69 W13       30.03S
MEADVILLE      MOSUNNY   87  63  44 NW8       30.05F
FRANKLIN*      SUNNY     84  64  51 W8        30.07F
NEW CASTLE     FAIR      88  67  49 CALM      30.04F
BEAVER COUNTY  SUNNY     88  61  40 NW7       30.05F
BUTLER*        SUNNY     88  63  42 W8G16     30.06F
PITTSBURGH INT MOSUNNY   89  62  40 W9        30.04F
PITTSBURGH     MOSUNNY   86  60  41 W9        30.04F
INDIANA*       SUNNY     84  66  54 W5        30.08S
LATROBE        MOSUNNY   82  68  61 SW13G25   30.07F
WASHINGTON CO* MOSUNNY   88  64  45 NW8       30.06F
$$

PAZ004>006-010>012-017>019-024>028-033>037-041-042-045-046-049>053-022000-
CENTRAL PENNSYLVANIA

CITY           SKY/WX    TMP DP  RH WIND       PRES   REMARKS
BRADFORD       MOSUNNY   84  62  47 W8        30.07F
DUBOIS         PTSUNNY   86  64  47 W10       30.06F
CLEARFIELD     MOSUNNY   86  64  47 NW12      30.04F
JOHNSTOWN      PTSUNNY   81  64  56 W15G22    30.10S
ALTOONA        MOSUNNY   88  63  43 VRB7      30.04F
STATE COLLEGE  MOSUNNY   86  66  51 NW7       30.01F
WILLIAMSPORT   PTSUNNY   87  68  52 VRB3      29.97F
SELINSGROVE    SUNNY     88  66  48 N8        29.98F
FT INDIANTOWN  SUNNY     87  64  44 N6        29.97F
CAPITAL CITY   SUNNY     89  64  43 N7        29.97F
HARRISBURG     MOSUNNY   89  65  44 NW7       29.96F
YORK           SUNNY     88  68  51 N5        29.98F
$$

PAZ038>040-043-044-047-048-054-055-060>062-067>071-022000-
EASTERN PENNSYLVANIA

CITY           SKY/WX    TMP DP  RH WIND       PRES   REMARKS
SCRANTON       SUNNY     88  62  41 W10       29.99F
MOUNT POCONO   MOSUNNY   83  58  42 N8        30.04F
ALLENTOWN      MOSUNNY   90  65  43 VRB3      29.95F
QUAKERTOWN*    PTCLDY    88  64  45 NW3       29.97F
READING        MOSUNNY   89  61  38 NW7       29.95F
LANCASTER      SUNNY     89  61  38 VRB3      29.97F
COATESVILLE    CLEAR     86  61  42 W8        29.99F
POTTSTOWN      SUNNY     88  61  40 SW7       29.97F
BLUE BELL      SUNNY     90  64  43 CALM      29.95F
DOYLESTOWN     MOSUNNY   87  63  44 SW5       29.95F
WILLOW GROVE   NOT AVBL
NORTH PHILA    PTSUNNY   92  62  36 VRB3      29.96F
PHILADELPHIA   PTSUNNY   91  63  39 S9        29.94F
$$



USA.gov is the U.S. government's official web portal to all federal, state and local government web resources and services.